マクノート彗星

P/2012 O1 ( McNaught )

English version
Home page
Updated on April 6, 2013

---------------------------------------------------------------------

・ プロフィール

発見日 2012年7月18日
発見光度 18.9等
発見者 Robert H. McNaught (Siding Spring)

・ 写真集

・ 軌道要素

Epoch 2012 July 12.0 TT = JDT 2456120.5
T 2012 July 23.90486 TT                                 MPC
q   1.4991394            (2000.0)            P               Q
n   0.14657633     Peri.  222.10998     +0.88166847     +0.43424759
a   3.5625433      Node   111.27757     -0.36256513     +0.87385438
e   0.5791940      Incl.   11.42825     -0.30200536     +0.21864937
P   6.72
From 87 observations 2012 July 18-Nov. 18, mean residual 0".5.

・ 光度変化

        m1 = 17.5 + 5 logΔ + 10.0 log r

---------------------------------------------------------------------

軌道要素はM.P.E.C. 2012-W54に掲載されたものです。
光度グラフはComet for Windowsで作成したものです。

---------------------------------------------------------------------

Copyright(C) Seiichi Yoshida (comet@aerith.net). All rights reserved.